Regional Weather Roundup
Issued by NWS

Home | Current Version | Previous Version | Text Only | Print | Product List | Glossary Off
Versions: 1 2 3 4 5 6 7 8 9 10 11 12 13 14 15 16 17 18 19 20 21 22 23 24 25 26 27 28 29 30 31 32 33 34 35 36 37 38 39 40 41 42 43 44 45 46 47 48 49 50

000
ASUS45 KABQ 010410
RWRNM
WEATHER ROUNDUP FOR NEW MEXICO
NATIONAL WEATHER SERVICE ALBUQUERQUE NM
1000 PM MDT TUE SEP 30 2014

NOTE: "FAIR" MEANS FEW OR NO CLOUDS BELOW 12,000 FEET AGL WITH NO
       SIGNIFICANT WEATHER OR OBSTRUCTIONS TO VISION.

      THIS PRODUCT IS RELEASED AS TWO VERSIONS.  ONE VERSION NEAR
      THE TOP OF THE HOUR CONTAINING PRELIMINARY DATA FROM ALBUQUERQUE
      AND OTHER STATIONS.  A FINAL VERSION WITH ADDITIONAL DATA IS
      ISSUED ABOUT 10 MINUTES AFTER THE HOUR.

NMZ501-503-504-510>518-010500-
NORTHWEST PLATEAU/NORTHCENTRAL MOUNTAINS

CITY           SKY/WX    TMP DP  RH WIND       PRES   REMARKS
FARMINGTON     CLEAR     51  42  71 E3        29.97S
LOS ALAMOS     CLEAR     54  31  41 NW5       30.07S
SANTA FE       CLEAR     54  31  41 N12       29.99S
TAOS           CLEAR     45  30  57 NW7       30.06S
ANGEL FIRE     FAIR      42  31  63 SE8       30.10R

$$
NMZ402-403-502-505>509-010500-
WESTCENTRAL MOUNTAINS/SOUTHWEST MOUNTAINS

CITY           SKY/WX    TMP DP  RH WIND       PRES   REMARKS
GALLUP         CLEAR     51  39  63 CALM      30.03S
GRANTS         CLEAR     55  34  44 W10       30.04S
SILVER CITY    CLEAR     59  34  38 N8        30.01S

$$
NMZ407-409-411-412-010500-
SOUTHERN DESERTS

CITY           SKY/WX    TMP DP  RH WIND       PRES   REMARKS
LORDSBURG      FAIR      63  36  36 MISG      29.93S
DEMING         CLEAR     63  36  36 W8        29.93R
LAS CRUCES     CLEAR     69  29  22 W9G16     29.92F
HOLLOMAN AFB   PTCLDY    68  36  31 S6        29.88R
ALAMOGORDO     PTCLDY    66  37  34 S5        29.90S
T OR C         CLEAR     69  35  28 W12       29.91R

$$
NMZ519>523-010500-
CENTRAL VALLEYS/CENTRAL HIGHLANDS

CITY           SKY/WX    TMP DP  RH WIND       PRES   REMARKS
ALBUQUERQUE    CLEAR     65  32  29 NW5       29.96R
DOUBLE EAGLE   CLEAR     55  32  41 NW7       29.99S
MORIARTY ARPT  FAIR      53  31  43 W7        30.01S
CLINES CORNERS CLEAR     49  32  52 W10       30.02R
BELEN          NOT AVBL
SOCORRO        FAIR      62  41  46 CALM      29.93R

$$
NMZ524>526-539-540-010500-
SOUTHCENTRAL MOUNTAINS

CITY           SKY/WX    TMP DP  RH WIND       PRES   REMARKS
RUIDOSO        NOT AVBL

$$
NMZ527>531-010500-
NORTHEAST HIGHLANDS/NORTHEAST PLAINS

CITY           SKY/WX    TMP DP  RH WIND       PRES   REMARKS
LAS VEGAS      CLEAR     51  33  50 NW10      29.99S
RATON          CLEAR     57  33  40 CALM      29.93R
CLAYTON        PTCLDY    60  40  47 W8        29.82S

$$
NMZ532>537-010500-
EASTCENTRAL PLAINS

CITY           SKY/WX    TMP DP  RH WIND       PRES   REMARKS
TUCUMCARI      CLEAR     63  41  44 SW10      29.81R
CANNON AFB     CLEAR     64  46  53 NW8       29.86S
CLOVIS AIRPORT   N/A     61  46  59 W7        29.88S

$$
NMZ028-029-538-010500-
SOUTHEAST PLAINS

CITY           SKY/WX    TMP DP  RH WIND       PRES   REMARKS
ROSWELL        CLEAR     65  45  48 SW8       29.83S
CARLSBAD       CLEAR     67  55  65 NW8       29.82S
HOBBS          CLEAR     68  54  60 CALM      29.86S


$$



USA.gov is the U.S. government's official web portal to all federal, state and local government web resources and services.